Weather History for Rickenbacker, OH

Change the Weather History Date:

Sunday, May 6, 2012

  Actual Average Record
Temperature  
Mean Temperature 69 °F -  
Max Temperature 82 °F 71 °F 89 °F (2004)
Min Temperature 56 °F 50 °F 42 °F (2005)
Cooling Degree Days 4    
Growing Degree Days 19 (Base 50)    
Moisture  
Dew Point 50 °F    
Average Humidity 52    
Maximum Humidity 74    
Minimum Humidity 30    
Precipitation  
Precipitation 0.00 in - - ()
Sea Level Pressure  
Sea Level Pressure 30.00 in    
Wind  
Wind Speed 4 mph (North)    
Max Wind Speed 8 mph    
Max Gust Speed -    
Visibility 10 miles    
Events      
Averages and records for this station are not official NWS values.
T = Trace of Precipitation, MM = Missing Value Source: NWS Daily Summary

Daily Weather History Graph

Daily Weather History Graph

Search for Another Location

Airport:

Trip Planner

Search our weather history database for the weather conditions in past years. The results will help you decide how hot, cold, wet, or windy it might be!

Date:

Astronomy

May. 06, 2012 Rise Set
Actual Time 6:25 AM EDT 8:31 PM EDT
Civil Twilight 5:55 AM EDT 9:01 PM EDT
Nautical Twilight 5:19 AM EDT 9:37 PM EDT
Astronomical Twilight 4:40 AM EDT 10:17 PM EDT
Moon 9:35 PM EDT (5/6) 6:35 AM EDT (5/6)
Length of Visible Light 15h 05m
Length of Day
14h 05m
Full, 100% of the Moon is Illuminated
May 6
Full
May 12
Last Quarter
May 20
New
May 28
First Quarter
Jun 4
Full

Hourly Weather History & Observations

Time (EDT) Temp. Dew Point Humidity Pressure Visibility Wind Dir Wind Speed Gust Speed Precip Events Conditions
12:15 AM 65.1 °F 55.6 °F 71% 30.01 in 10.0 mi North 6.9 mph - N/A   Clear
12:35 AM 64.2 °F 55.0 °F 72% 30.00 in 10.0 mi NE 4.6 mph - N/A   Clear
12:55 AM 62.8 °F 54.3 °F 74% 30.00 in 10.0 mi NNE 6.9 mph - N/A   Clear
1:15 AM 62.8 °F 52.0 °F 68% 30.00 in 10.0 mi North 5.8 mph - N/A   Clear
1:35 AM 63.0 °F 51.4 °F 66% 30.01 in 10.0 mi North 8.1 mph - N/A   Clear
1:55 AM 62.2 °F 51.3 °F 67% 30.00 in 10.0 mi North 4.6 mph - N/A   Clear
2:15 AM 60.8 °F 50.0 °F 68% 30.00 in 10.0 mi North 4.6 mph - N/A   Clear
2:35 AM 61.0 °F 49.5 °F 66% 30.01 in 10.0 mi North 6.9 mph - N/A   Clear
2:55 AM 60.3 °F 49.3 °F 67% 30.00 in 10.0 mi North 4.6 mph - N/A   Clear
3:15 AM 59.5 °F 49.3 °F 69% 29.99 in 10.0 mi Calm Calm - N/A   Clear
3:35 AM 59.7 °F 48.9 °F 67% 29.99 in 10.0 mi Calm Calm - N/A   Clear
3:55 AM 59.4 °F 48.9 °F 68% 29.99 in 10.0 mi North 3.5 mph - N/A   Clear
4:15 AM 59.0 °F 48.9 °F 69% 29.98 in 10.0 mi Calm Calm - N/A   Clear
4:35 AM 57.9 °F 48.7 °F 71% 29.98 in 10.0 mi NNE 3.5 mph - N/A   Clear
4:55 AM 57.0 °F 48.9 °F 74% 29.98 in 10.0 mi North 3.5 mph - N/A   Clear
5:15 AM 56.8 °F 48.7 °F 74% 29.99 in 10.0 mi NNW 3.5 mph - N/A   Clear
5:35 AM 56.7 °F 48.4 °F 74% 30.00 in 10.0 mi North 4.6 mph - N/A   Clear
5:55 AM 56.3 °F 48.2 °F 74% 30.00 in 10.0 mi NNE 4.6 mph - N/A   Clear
6:15 AM 56.3 °F 47.8 °F 73% 30.00 in 10.0 mi North 4.6 mph - N/A   Clear
6:35 AM 56.5 °F 47.7 °F 72% 30.00 in 10.0 mi North 3.5 mph - N/A   Clear
6:55 AM 56.7 °F 47.8 °F 72% 30.01 in 10.0 mi NNE 3.5 mph - N/A   Clear
7:15 AM 56.8 °F 48.4 °F 73% 30.03 in 10.0 mi NNW 3.5 mph - N/A   Clear
7:35 AM 58.5 °F 49.1 °F 71% 30.04 in 10.0 mi North 3.5 mph - N/A   Clear
7:55 AM 59.9 °F 48.4 °F 66% 30.04 in 10.0 mi North 4.6 mph - N/A   Clear
8:15 AM 60.8 °F 47.5 °F 62% 30.05 in 10.0 mi North 4.6 mph - N/A   Clear
8:35 AM 61.7 °F 47.3 °F 59% 30.06 in 10.0 mi NNE 4.6 mph - N/A   Clear
8:55 AM 62.6 °F 47.5 °F 58% 30.06 in 10.0 mi North 5.8 mph - N/A   Clear
9:15 AM 63.5 °F 48.0 °F 57% 30.07 in 10.0 mi NNE 4.6 mph - N/A   Clear
9:35 AM 64.6 °F 48.9 °F 57% 30.07 in 10.0 mi NNE 4.6 mph - N/A   Mostly Cloudy
9:55 AM 65.5 °F 49.3 °F 56% 30.07 in 10.0 mi NNE 4.6 mph - N/A   Mostly Cloudy
10:15 AM 67.1 °F 49.1 °F 52% 30.07 in 10.0 mi NNE 4.6 mph - N/A   Scattered Clouds
10:35 AM 68.4 °F 49.8 °F 51% 30.06 in 10.0 mi Calm Calm - N/A   Clear
10:55 AM 69.6 °F 49.8 °F 49% 30.06 in 10.0 mi Calm Calm - N/A   Clear
11:15 AM 70.7 °F 49.8 °F 48% 30.06 in 10.0 mi Calm Calm - N/A   Clear
11:35 AM 72.1 °F 49.6 °F 45% 30.05 in 10.0 mi Calm Calm - N/A   Clear
11:55 AM 73.4 °F 50.5 °F 45% 30.03 in 10.0 mi Calm Calm - N/A   Clear
12:15 PM 74.7 °F 49.1 °F 40% 30.03 in 10.0 mi NNE 3.5 mph - N/A   Clear
12:35 PM 75.2 °F 48.7 °F 39% 30.03 in 10.0 mi Calm Calm - N/A   Clear
12:55 PM 76.3 °F 47.8 °F 37% 30.02 in 10.0 mi North 3.5 mph - N/A   Clear
1:15 PM 77.2 °F 48.2 °F 36% 30.01 in 10.0 mi North 3.5 mph - N/A   Clear
1:35 PM 77.5 °F 47.3 °F 34% 30.01 in 10.0 mi Calm Calm - N/A   Clear
1:55 PM 78.6 °F 48.7 °F 35% 30.01 in 10.0 mi Calm Calm - N/A   Clear
2:15 PM 79.3 °F 48.2 °F 33% 30.01 in 10.0 mi Calm Calm - N/A   Clear
2:35 PM 79.5 °F 47.7 °F 33% 30.00 in 10.0 mi Calm Calm - N/A   Clear
2:55 PM 80.1 °F 47.7 °F 32% 30.01 in 10.0 mi Calm Calm - N/A   Clear
3:15 PM 80.8 °F 48.7 °F 33% 30.01 in 10.0 mi Calm Calm - N/A   Clear
3:35 PM 81.0 °F 48.9 °F 33% 30.01 in 10.0 mi WNW 8.1 mph - N/A   Clear
3:55 PM 81.5 °F 49.8 °F 33% 30.00 in 10.0 mi West 6.9 mph - N/A   Clear
4:15 PM 81.9 °F 49.5 °F 32% 29.98 in 10.0 mi Calm Calm - N/A   Clear
4:35 PM 82.0 °F 47.5 °F 30% 29.99 in 10.0 mi West 4.6 mph - N/A   Clear
4:55 PM 82.2 °F 49.6 °F 32% 29.98 in 10.0 mi West 3.5 mph - N/A   Clear
5:15 PM 82.2 °F 49.6 °F 32% 29.98 in 10.0 mi WNW 5.8 mph - N/A   Clear
5:35 PM 81.5 °F 50.2 °F 34% 29.97 in 10.0 mi WNW 4.6 mph - N/A   Clear
5:55 PM 81.7 °F 48.0 °F 31% 29.96 in 10.0 mi Calm Calm - N/A   Clear
6:15 PM 81.7 °F 48.7 °F 32% 29.95 in 10.0 mi Calm Calm - N/A   Clear
6:35 PM 81.3 °F 47.7 °F 31% 29.95 in 10.0 mi Calm Calm - N/A   Clear
6:55 PM 80.4 °F 48.9 °F 33% 29.94 in 10.0 mi Calm Calm - N/A   Clear
7:15 PM 79.5 °F 48.9 °F 34% 29.94 in 10.0 mi NE 3.5 mph - N/A   Clear
7:35 PM 78.3 °F 51.6 °F 39% 29.93 in 10.0 mi ENE 4.6 mph - N/A   Clear
7:55 PM 77.0 °F 53.1 °F 43% 29.94 in 10.0 mi NE 4.6 mph - N/A   Clear
8:15 PM 75.9 °F 52.9 °F 45% 29.94 in 10.0 mi NE 4.6 mph - N/A   Clear
8:35 PM 75.2 °F 52.7 °F 45% 29.95 in 10.0 mi NNE 3.5 mph - N/A   Clear
8:55 PM 74.8 °F 52.7 °F 46% 29.95 in 10.0 mi ENE 3.5 mph - N/A   Clear
9:15 PM 73.8 °F 52.7 °F 48% 29.95 in 10.0 mi North 4.6 mph - N/A   Clear
9:35 PM 73.2 °F 51.6 °F 47% 29.94 in 10.0 mi NNE 4.6 mph - N/A   Clear
9:55 PM 72.3 °F 52.0 °F 49% 29.94 in 10.0 mi Calm Calm - N/A   Clear
10:35 PM 71.1 °F 50.2 °F 48% 29.95 in 10.0 mi NNW 3.5 mph - N/A   Clear
10:55 PM 70.7 °F 49.6 °F 47% 29.95 in 10.0 mi NW 4.6 mph - N/A   Clear
11:15 PM 69.4 °F 49.1 °F 48% 29.96 in 10.0 mi NNW 5.8 mph - N/A   Clear
11:35 PM 68.9 °F 49.6 °F 50% 29.96 in 10.0 mi NNW 6.9 mph - N/A   Clear
11:55 PM 68.5 °F 49.1 °F 50% 29.96 in 10.0 mi NNE 4.6 mph - N/A   Clear